• In Deutschland
  • Länderverzeichnis
  • Für 7 Tage
  • Wassertemperatur
  • Satellitenkarten
  • Wetterkarte
  • Widgets
  • user-avatar
    Anmelden

    Stündliche Wetter Iława

    Heute, 17 Februar, Samstag

    Zeit Temperatur Niederschläge Wind Luftdruck Luftfeuchtigkeit
    00:00 -2°C° 0,1 mm 5 m/S 756 mmHg 90%
    01:00 -3°C° 0,1 mm 6 m/S 756 mmHg 90%
    02:00 -3°C° 0,1 mm 6 m/S 755 mmHg 90%
    03:00 -2°C° 0,1 mm 6 m/S 755 mmHg 90%
    04:00 -2°C° 0,1 mm 6 m/S 755 mmHg 90%
    05:00 -1°C° 0 mm 5 m/S 755 mmHg 91%
    06:00 -1°C° 0 mm 5 m/S 756 mmHg 91%
    07:00 -2°C° 0 mm 4 m/S 755 mmHg 93%
    08:00 -1°C° 0,1 mm 4 m/S 756 mmHg 92%
    09:00 -1°C° 0,1 mm 4 m/S 756 mmHg 90%
    10:00 -1°C° 0,1 mm 4 m/S 756 mmHg 89%
    11:00 0°C° 0,1 mm 4 m/S 756 mmHg 86%
    12:00 0°C° 0,1 mm 4 m/S 756 mmHg 83%
    13:00 +1°C° 0 mm 3 m/S 756 mmHg 78%
    14:00 +1°C° 0 mm 3 m/S 756 mmHg 79%
    15:00 0°C° 0 mm 3 m/S 756 mmHg 80%
    16:00 +1°C° 0 mm 2 m/S 756 mmHg 82%
    17:00 +1°C° 0,1 mm 2 m/S 756 mmHg 84%
    18:00 -1°C° 0,1 mm 2 m/S 756 mmHg 87%
    19:00 -1°C° 0,1 mm 2 m/S 756 mmHg 90%
    20:00 -2°C° 0 mm 2 m/S 757 mmHg 91%
    21:00 -2°C° 0 mm 2 m/S 757 mmHg 91%
    22:00 -2°C° 0 mm 2 m/S 757 mmHg 92%
    23:00 -2°C° 0 mm 2 m/S 757 mmHg 92%

    Morgen, 18 Februar, Sonntag

    Zeit Temperatur Niederschläge Wind Luftdruck Luftfeuchtigkeit
    00:00 -3°C° 0 mm 2 m/S 757 mmHg 92%
    01:00 -3°C° 0 mm 2 m/S 758 mmHg 92%
    02:00 -3°C° 0 mm 2 m/S 758 mmHg 91%
    03:00 -3°C° 0 mm 2 m/S 758 mmHg 91%
    04:00 -3°C° 0 mm 2 m/S 758 mmHg 91%
    05:00 -3°C° 0 mm 2 m/S 759 mmHg 91%
    06:00 -4°C° 0 mm 2 m/S 759 mmHg 92%
    07:00 -4°C° 0 mm 2 m/S 759 mmHg 92%
    08:00 -3°C° 0 mm 2 m/S 760 mmHg 87%
    09:00 -2°C° 0 mm 2 m/S 760 mmHg 82%
    10:00 -1°C° 0 mm 2 m/S 760 mmHg 78%
    11:00 -1°C° 0 mm 3 m/S 760 mmHg 75%
    12:00 0°C° 0 mm 3 m/S 760 mmHg 72%
    13:00 0°C° 0 mm 3 m/S 760 mmHg 69%
    14:00 +1°C° 0 mm 2 m/S 760 mmHg 70%
    15:00 -1°C° 0 mm 2 m/S 760 mmHg 71%
    16:00 -1°C° 0 mm 2 m/S 760 mmHg 72%
    17:00 -1°C° 0 mm 2 m/S 760 mmHg 74%
    18:00 0°C° 0 mm 1 m/S 761 mmHg 76%
    19:00 0°C° 0 mm 1 m/S 761 mmHg 79%
    20:00 0°C° 0 mm 1 m/S 761 mmHg 79%
    21:00 -2°C° 0 mm 2 m/S 760 mmHg 79%
    22:00 -2°C° 0 mm 2 m/S 760 mmHg 80%
    23:00 -2°C° 0 mm 2 m/S 760 mmHg 80%

    übermorgen, 19 Februar, Montag

    Zeit Temperatur Niederschläge Wind Luftdruck Luftfeuchtigkeit
    00:00 -2°C° 0 mm 2 m/S 760 mmHg 81%
    01:00 -2°C° 0 mm 2 m/S 760 mmHg 81%
    02:00 -2°C° 0 mm 2 m/S 760 mmHg 82%
    03:00 -2°C° 0 mm 2 m/S 760 mmHg 83%
    04:00 -2°C° 0 mm 2 m/S 759 mmHg 84%
    05:00 -2°C° 0 mm 2 m/S 759 mmHg 85%
    06:00 -3°C° 0 mm 2 m/S 759 mmHg 86%
    07:00 -3°C° 0 mm 2 m/S 759 mmHg 87%
    08:00 -2°C° 0 mm 2 m/S 759 mmHg 83%
    09:00 -1°C° 0 mm 2 m/S 759 mmHg 79%
    10:00 -1°C° 0 mm 2 m/S 759 mmHg 76%
    11:00 +1°C° 0 mm 2 m/S 759 mmHg 73%
    12:00 +1°C° 0 mm 2 m/S 759 mmHg 70%
    13:00 +2°C° 0 mm 2 m/S 758 mmHg 67%
    14:00 +1°C° 0 mm 2 m/S 758 mmHg 69%
    15:00 +1°C° 0 mm 2 m/S 758 mmHg 71%
    16:00 +2°C° 0 mm 1 m/S 758 mmHg 73%
    17:00 +1°C° 0 mm 1 m/S 758 mmHg 75%
    18:00 +1°C° 0 mm 1 m/S 757 mmHg 76%
    19:00 0°C° 0 mm 1 m/S 757 mmHg 78%
    20:00 0°C° 0 mm 1 m/S 757 mmHg 78%
    21:00 0°C° 0 mm 1 m/S 757 mmHg 79%
    22:00 0°C° 0 mm 1 m/S 757 mmHg 79%
    23:00 -1°C° 0 mm 1 m/S 757 mmHg 79%

    20 Februar, Dienstag

    Zeit Temperatur Niederschläge Wind Luftdruck Luftfeuchtigkeit
    00:00 -1°C° 0 mm 1 m/S 757 mmHg 80%
    01:00 -1°C° 0 mm 1 m/S 757 mmHg 80%
    02:00 -1°C° 0 mm 1 m/S 757 mmHg 80%
    03:00 -1°C° 0 mm 1 m/S 757 mmHg 81%
    04:00 -1°C° 0 mm 1 m/S 757 mmHg 81%
    05:00 -1°C° 0 mm 1 m/S 756 mmHg 81%
    06:00 -2°C° 0 mm 1 m/S 756 mmHg 82%
    07:00 -2°C° 0 mm 1 m/S 756 mmHg 82%
    08:00 -3°C° 0 mm 2 m/S 757 mmHg 78%
    09:00 -2°C° 0 mm 2 m/S 757 mmHg 74%
    10:00 -1°C° 0 mm 2 m/S 757 mmHg 70%
    11:00 -1°C° 0 mm 2 m/S 757 mmHg 68%
    12:00 +1°C° 0 mm 2 m/S 757 mmHg 65%
    13:00 +2°C° 0 mm 2 m/S 756 mmHg 63%
    14:00 +1°C° 0 mm 2 m/S 756 mmHg 66%
    15:00 +1°C° 0 mm 2 m/S 756 mmHg 70%
    16:00 +1°C° 0 mm 2 m/S 756 mmHg 73%
    17:00 -1°C° 0 mm 3 m/S 756 mmHg 77%
    18:00 -2°C° 0 mm 3 m/S 756 mmHg 81%
    19:00 -2°C° 0 mm 3 m/S 756 mmHg 85%
    20:00 -2°C° 0 mm 3 m/S 756 mmHg 85%
    21:00 -4°C° 0 mm 3 m/S 757 mmHg 86%
    22:00 -3°C° 0 mm 2 m/S 757 mmHg 87%
    23:00 -3°C° 0 mm 2 m/S 757 mmHg 87%

    21 Februar, Mittwoch

    Zeit Temperatur Niederschläge Wind Luftdruck Luftfeuchtigkeit
    00:00 -3°C° 0 mm 2 m/S 757 mmHg 87%
    01:00 -3°C° 0 mm 2 m/S 757 mmHg 88%
    02:00 -4°C° 0 mm 3 m/S 756 mmHg 88%
    03:00 -4°C° 0 mm 3 m/S 756 mmHg 88%
    04:00 -4°C° 0 mm 3 m/S 756 mmHg 88%
    05:00 -4°C° 0 mm 3 m/S 756 mmHg 88%
    06:00 -4°C° 0 mm 3 m/S 756 mmHg 88%
    07:00 -4°C° 0 mm 3 m/S 756 mmHg 88%
    08:00 -4°C° 0,1 mm 3 m/S 756 mmHg 85%
    09:00 -4°C° 0,1 mm 3 m/S 757 mmHg 82%
    10:00 -4°C° 0,1 mm 3 m/S 757 mmHg 79%
    11:00 -2°C° 0,1 mm 3 m/S 757 mmHg 77%
    12:00 -2°C° 0,1 mm 3 m/S 757 mmHg 74%
    13:00 -2°C° 0,1 mm 3 m/S 757 mmHg 72%
    14:00 -3°C° 0 mm 4 m/S 757 mmHg 72%
    15:00 -4°C° 0 mm 4 m/S 757 mmHg 72%
    16:00 -4°C° 0 mm 4 m/S 757 mmHg 71%
    17:00 -4°C° 0 mm 4 m/S 757 mmHg 72%
    18:00 -5°C° 0 mm 4 m/S 757 mmHg 72%
    19:00 -5°C° 0 mm 4 m/S 757 mmHg 73%
    20:00 -5°C° 0 mm 4 m/S 758 mmHg 72%
    21:00 -7°C° 0 mm 4 m/S 758 mmHg 72%
    22:00 -6°C° 0 mm 3 m/S 758 mmHg 71%
    23:00 -6°C° 0 mm 3 m/S 758 mmHg 71%

    22 Februar, Donnerstag

    Zeit Temperatur Niederschläge Wind Luftdruck Luftfeuchtigkeit
    00:00 -7°C° 0 mm 3 m/S 758 mmHg 71%
    01:00 -7°C° 0 mm 3 m/S 758 mmHg 71%
    02:00 -7°C° 0 mm 3 m/S 758 mmHg 72%
    03:00 -8°C° 0 mm 3 m/S 758 mmHg 73%
    04:00 -9°C° 0 mm 4 m/S 758 mmHg 74%
    05:00 -9°C° 0 mm 4 m/S 758 mmHg 74%
    06:00 -10°C° 0 mm 4 m/S 758 mmHg 73%
    07:00 -10°C° 0 mm 4 m/S 758 mmHg 73%
    08:00 -9°C° 0 mm 3 m/S 758 mmHg 71%
    09:00 -9°C° 0 mm 3 m/S 758 mmHg 69%
    10:00 -8°C° 0 mm 3 m/S 758 mmHg 67%
    11:00 -8°C° 0 mm 3 m/S 758 mmHg 65%
    12:00 -7°C° 0 mm 3 m/S 758 mmHg 64%
    13:00 -7°C° 0 mm 3 m/S 757 mmHg 62%
    14:00 -8°C° 0 mm 4 m/S 757 mmHg 62%
    15:00 -8°C° 0 mm 4 m/S 757 mmHg 63%
    16:00 -8°C° 0 mm 4 m/S 757 mmHg 63%
    17:00 -8°C° 0 mm 4 m/S 757 mmHg 65%
    18:00 -9°C° 0 mm 4 m/S 757 mmHg 66%
    19:00 -8°C° 0 mm 3 m/S 757 mmHg 67%
    20:00 -8°C° 0 mm 3 m/S 757 mmHg 68%
    21:00 -9°C° 0 mm 3 m/S 757 mmHg 70%
    22:00 -9°C° 0 mm 3 m/S 757 mmHg 71%
    23:00 -9°C° 0 mm 3 m/S 756 mmHg 72%
    Mehr zeigen